Tracking 34138 objects as of 15-May-2026
HD Live streaming from Space Station
objects crossing your sky now

STARLINK-36373

Track STARLINK-36373 now!
10-day predictions
STARLINK-36373 is classified as:


NORAD ID: 68039
Int'l Code: 2026-040AB
Perigee: 471.4 km
Apogee: 474.0 km
Inclination: 97.3 °
Period: 93.9 minutes
Semi major axis: 6843 km
RCS: Unknown
Launch date: March 1, 2026
Source: United States (US)
Launch site: AIR FORCE WESTERN TEST RANGE (AFWTR)
Your satellite tracking list
Your tracking list is empty




NASA's NSSDC Master Catalog

Two Line Element Set (TLE):
1 68039U 26040AB  26135.30178227  .00015571  00000-0  48390-3 0  9991
2 68039  97.2833  84.4831 0001882  96.0349 264.1108 15.33427621 11679
Source of the keplerian elements: AFSPC